Wind_Speed
3 3 5 12 14 14 15 16 12 13 8 10 13 10 8 8 7 6 5 11 6 6 5 6 9 9 11 11 8 7 8 5 4 7 5 5 6 5 6 8 12 16 20 24
5 2 6 12 9 9 14 11 9 11 11 5 10 12 11 9 11 9 5 5 10 8 7 7 8 7 6 5 4 6 9 4 5 4 5 6 6 9 11 13 17 21 26 29
8 6 7 13 5 5 12 11 13 13 10 7 5 8 11 12 12 8 6 6 4 6 10 11 10 9 7 4 5 6 9 8 7 9 8 11 13 16 18 18 22 26 31 34
8 7 9 13 11 12 13 16 16 17 13 7 5 6 9 15 15 5 9 9 6 8 10 9 9 8 9 7 7 8 11 9 10 12 11 13 16 19 21 21 28 33 36 40
12 9 12 11 11 15 17 19 17 16 15 9 8 7 7 13 10 7 11 11 14 15 13 10 9 8 10 11 11 12 16 14 11 13 13 14 18 22 24 27 36 39 42 45
17 14 14 14 9 15 16 17 17 16 16 14 10 7 7 7 8 7 11 12 14 16 16 16 16 16 17 16 13 17 24 7 7 12 16 17 22 25 28 32 39 43 46 47
19 16 16 15 12 20 18 12 16 19 19 17 16 14 6 13 16 13 13 15 14 15 19 19 19 20 21 16 12 13 13 14 12 16 19 24 28 30 34 38 44 46 46 47
26 23 17 16 19 23 24 23 18 18 18 19 21 17 8 10 12 7 14 13 12 11 16 19 22 22 19 13 9 9 15 14 16 20 24 27 33 37 40 45 43 42 46 48
26 24 19 18 22 22 21 20 19 20 19 23 23 20 13 13 11 16 9 11 13 16 16 15 15 12 11 10 10 14 17 17 19 23 29 34 38 42 40 39 43 48 47 47
25 23 20 23 26 25 19 18 20 22 24 25 24 22 15 16 13 13 15 16 17 16 15 14 13 12 12 12 14 18 18 22 26 30 34 39 42 40 40 45 42 44 46 53
29 27 21 23 27 25 20 21 22 24 31 29 21 19 14 15 16 17 20 21 19 17 18 16 16 16 18 17 20 23 25 28 31 36 39 40 37 37 42 39 41 51 53 55
29 32 29 24 24 29 25 24 25 25 25 29 24 13 15 16 17 19 21 19 20 20 20 20 19 20 22 23 26 29 29 31 35 38 40 40 38 40 45 50 49 53 55 57
26 28 30 30 30 26 30 24 22 30 22 22 20 11 15 17 18 22 25 23 19 21 21 21 22 23 25 28 30 31 33 34 37 38 39 39 44 49 51 50 53 55 55 56
27 25 24 25 20 24 28 27 29 30 28 22 21 17 17 22 25 27 26 23 21 17 19 21 24 26 28 31 31 32 33 34 38 40 41 47 47 50 50 52 54 52 54 55
29 27 22 21 23 27 28 28 30 29 28 26 21 25 20 23 25 27 27 23 22 21 21 24 25 27 30 32 32 32 33 35 37 41 42 45 48 50 52 55 54 56 56 56
28 26 24 23 25 27 27 25 26 28 28 27 26 26 22 25 24 22 23 25 24 25 26 27 29 30 31 30 31 33 37 41 44 46 47 46 48 52 54 53 55 56 55 55
30 31 30 26 25 26 30 24 27 27 27 28 29 27 28 29 27 28 28 29 27 27 28 30 31 32 30 32 35 39 43 46 48 49 49 47 51 51 50 52 55 57 57 58
30 28 32 30 30 33 21 22 25 30 30 32 33 32 29 29 27 25 26 27 29 29 28 30 30 31 33 36 40 44 47 48 49 50 50 50 52 54 53 55 57 57 57 60
33 30 32 31 28 29 23 23 29 35 29 30 29 29 27 25 24 24 24 26 28 28 29 29 31 34 37 40 44 46 47 48 49 50 50 52 54 56 56 55 54 53 56 64
35 37 34 30 28 29 26 27 27 29 29 25 28 28 24 23 24 25 25 27 28 27 28 31 33 37 40 42 44 45 46 48 49 50 52 54 56 56 55 53 55 59 60 63
34 34 30 28 31 32 29 27 29 34 22 26 25 25 25 25 25 26 25 24 25 28 31 34 37 39 41 42 44 46 48 50 51 52 54 55 55 54 53 56 60 63 66 67
32 33 33 32 34 31 28 28 27 25 26 25 24 25 24 23 22 21 22 25 28 30 34 36 38 39 42 44 46 48 49 51 52 54 54 54 53 54 57 60 63 66 66 66
33 33 32 33 30 30 27 24 22 21 20 19 20 20 17 17 20 23 25 29 32 35 37 39 41 43 45 47 49 51 52 52 53 54 54 54 54 56 59 63 65 66 66 67
30 33 34 31 29 27 24 20 18 17 16 16 16 17 20 22 24 28 31 34 36 39 42 43 44 46 48 50 52 53 54 55 56 57 55 53 56 61 64 66 67 67 68 71
28 30 32 33 29 26 24 23 23 20 19 19 21 22 24 27 30 33 36 38 41 43 45 46 47 49 51 53 55 55 56 57 57 55 54 57 62 65 67 68 68 69 72 76
31 31 33 31 27 31 28 27 26 25 25 26 26 27 30 34 37 39 42 45 47 48 49 50 51 52 55 56 56 58 58 57 54 55 59 62 67 70 70 70 70 73 76 79
Wind_Direction
261 255 204 182 193 211 223 217 230 255 231 179 165 179 167 143 138 57 99 134 133 142 155 150 152 158 155 150 156 155 159 174 228 252 234 198 199 222 261 276 289 295 296 300
234 211 201 222 213 233 229 229 237 218 224 196 197 176 169 153 133 114 102 173 166 159 161 161 154 153 158 153 159 185 180 205 235 265 241 240 243 257 262 275 290 298 302 302
205 187 219 243 240 247 215 205 204 211 197 199 201 193 175 150 147 135 122 153 170 184 167 166 169 177 176 197 216 208 221 248 260 260 246 248 258 265 267 271 298 301 301 304
224 212 193 238 258 209 192 191 204 217 226 210 236 238 195 171 149 112 159 153 157 167 179 183 191 215 230 238 228 231 236 250 252 255 255 264 266 270 283 285 306 306 307 307
234 202 205 218 264 209 205 201 208 221 236 256 256 268 224 200 199 218 214 215 200 199 200 210 227 240 247 243 242 238 225 231 234 252 268 284 283 289 301 298 305 308 307 306
236 212 203 231 240 213 215 214 222 234 246 257 273 255 213 244 259 257 231 213 202 209 213 220 223 232 244 253 254 248 277 234 263 272 282 301 304 303 305 303 299 304 304 305
225 218 216 216 211 212 224 229 229 234 242 256 268 277 299 270 261 244 227 233 223 217 214 225 232 232 241 251 253 256 279 293 293 290 301 305 306 306 304 298 300 300 300 304
224 230 217 223 203 215 227 240 241 253 257 258 264 278 289 286 255 238 227 243 255 255 233 230 231 236 244 236 240 261 273 280 289 298 299 302 303 303 300 301 299 296 299 304
226 226 228 210 208 215 228 243 253 262 269 274 276 283 280 281 250 235 241 234 257 258 253 241 234 223 235 251 264 267 266 281 292 296 296 300 301 299 299 297 294 298 299 294
230 223 222 213 209 216 233 239 250 260 269 269 277 281 265 263 262 243 239 253 265 263 250 240 240 248 261 268 277 279 282 290 294 298 300 300 298 298 300 297 295 292 290 301
223 225 226 225 219 223 225 233 250 267 265 268 280 271 265 259 251 249 252 253 252 251 248 250 260 267 272 281 280 283 290 295 300 300 299 301 295 294 295 288 286 297 303 305
222 227 228 234 228 220 237 240 258 281 281 264 275 273 261 263 256 251 254 247 242 246 250 251 260 270 276 279 281 283 291 296 298 298 296 293 286 287 286 298 299 306 308 307
227 225 232 232 238 235 239 260 264 271 267 264 270 293 279 268 280 274 264 265 256 248 250 253 261 269 276 277 277 284 285 289 290 292 292 288 283 293 303 305 306 305 305 303
229 233 237 240 239 243 247 256 257 258 264 271 277 280 272 274 272 269 271 271 268 256 254 259 263 271 270 272 276 280 284 289 293 295 291 289 290 301 302 302 305 305 302 301
233 239 236 227 223 234 245 252 256 263 264 265 275 271 269 274 277 271 271 270 267 270 268 266 266 266 268 274 279 283 292 295 297 294 287 287 295 299 302 304 305 302 300 298
235 240 235 242 245 244 253 252 257 259 262 265 267 268 285 282 275 277 273 269 261 261 267 269 272 278 281 282 291 298 300 305 304 305 305 303 301 301 304 302 299 299 298 299
241 242 235 237 242 252 254 255 262 268 273 273 271 279 277 278 276 270 272 268 268 269 272 278 283 286 290 297 300 303 304 305 306 306 304 303 303 304 300 294 294 298 300 302
240 238 238 242 245 250 266 267 276 276 272 272 274 276 274 275 278 269 267 265 267 270 277 283 288 295 299 302 304 304 305 306 306 305 304 304 304 303 299 296 297 299 304 303
239 242 247 250 256 264 264 289 282 277 267 271 273 274 274 269 268 268 267 269 273 280 287 290 294 299 302 303 304 304 305 304 302 302 302 301 301 300 298 297 298 299 303 295
240 241 243 251 259 268 280 281 281 281 275 276 267 267 265 262 262 264 270 277 282 286 290 296 299 301 302 302 301 302 302 301 302 301 301 301 302 301 300 299 298 298 299 297
244 242 246 259 267 271 282 288 279 275 293 267 262 259 255 257 264 271 278 282 285 291 294 298 300 301 301 301 303 305 305 304 303 302 301 302 302 300 298 297 298 300 302 302
242 243 250 255 260 276 287 284 276 272 270 264 259 257 257 262 270 275 279 284 289 295 299 300 301 301 303 306 306 305 303 302 301 302 302 302 300 299 299 300 301 302 301 301
243 242 248 256 265 275 283 282 276 267 260 258 252 255 261 269 277 284 289 294 297 298 300 303 305 306 305 304 305 305 304 303 302 303 302 300 300 301 302 303 303 301 300 300
246 243 251 257 265 275 271 265 257 253 255 260 265 271 277 282 287 291 294 296 300 303 305 306 306 304 303 305 306 305 305 304 305 304 303 303 304 306 305 303 302 301 301 300
247 245 250 254 264 264 261 253 251 253 259 267 273 278 283 288 291 294 298 300 301 303 305 305 305 306 306 306 306 305 305 306 305 304 304 306 307 307 305 303 302 302 302 303
243 242 249 255 251 251 252 255 257 262 269 274 277 282 287 291 295 300 301 302 303 303 306 307 307 305 305 305 305 306 305 304 303 305 306 306 308 308 306 304 304 305 306 307
Height
5748 5748 5748 5750 5751 5753 5754 5757 5759 5760 5762 5761 5762 5762 5762 5762 5763 5765 5764 5765 5766 5767 5769 5770 5771 5774 5776 5776 5777 5778 5779 5781 5782 5784 5783 5781 5783 5784 5783 5783 5783 5782 5782 5781
5748 5747 5748 5751 5752 5753 5755 5757 5759 5759 5760 5762 5762 5763 5762 5763 5763 5766 5767 5767 5769 5769 5769 5771 5772 5772 5773 5773 5774 5775 5776 5776 5776 5777 5777 5778 5778 5779 5780 5780 5780 5779 5777 5776
5747 5747 5748 5752 5752 5753 5754 5756 5757 5759 5760 5760 5761 5762 5763 5764 5764 5764 5767 5768 5769 5770 5770 5770 5771 5772 5773 5773 5774 5774 5775 5775 5774 5774 5775 5777 5778 5777 5777 5777 5776 5774 5773 5770
5747 5747 5747 5751 5752 5752 5754 5755 5756 5757 5759 5758 5759 5761 5762 5763 5765 5766 5767 5769 5769 5770 5771 5770 5770 5771 5771 5771 5772 5773 5774 5774 5774 5775 5775 5776 5775 5774 5772 5771 5769 5767 5764 5761
5746 5745 5746 5750 5751 5752 5753 5754 5756 5757 5757 5759 5759 5760 5760 5761 5763 5765 5766 5766 5766 5765 5767 5767 5767 5766 5768 5770 5772 5771 5768 5770 5770 5772 5772 5771 5770 5767 5765 5763 5761 5757 5754 5751
5744 5744 5744 5746 5749 5752 5753 5754 5755 5756 5756 5757 5757 5759 5760 5760 5760 5761 5760 5762 5762 5763 5764 5765 5765 5765 5764 5766 5767 5764 5759 5763 5764 5766 5766 5764 5763 5761 5759 5757 5754 5750 5746 5741
5741 5742 5743 5744 5746 5750 5752 5753 5753 5754 5754 5755 5754 5755 5758 5758 5757 5758 5758 5758 5760 5761 5761 5761 5761 5761 5761 5763 5763 5762 5759 5756 5758 5759 5757 5757 5756 5754 5752 5749 5746 5741 5736 5732
5736 5740 5741 5742 5744 5747 5749 5750 5751 5751 5752 5752 5752 5753 5756 5753 5753 5755 5757 5758 5757 5758 5759 5759 5758 5758 5759 5759 5759 5758 5758 5754 5756 5754 5754 5752 5750 5747 5744 5740 5736 5731 5727 5722
5732 5735 5737 5738 5741 5744 5746 5747 5749 5748 5748 5749 5749 5750 5752 5750 5750 5752 5753 5754 5753 5753 5753 5755 5754 5755 5756 5757 5756 5755 5754 5753 5751 5750 5748 5745 5742 5740 5736 5732 5728 5723 5718 5714
5729 5731 5733 5735 5736 5739 5741 5744 5745 5745 5744 5744 5745 5746 5747 5748 5748 5749 5749 5751 5751 5751 5750 5750 5750 5751 5752 5752 5751 5750 5750 5747 5744 5743 5741 5739 5735 5731 5727 5723 5719 5715 5710 5703
5723 5726 5730 5731 5733 5736 5738 5738 5740 5741 5740 5738 5741 5742 5744 5744 5744 5744 5746 5747 5748 5748 5747 5746 5746 5746 5746 5745 5745 5744 5743 5740 5738 5736 5734 5730 5726 5722 5720 5715 5710 5704 5697 5690
5719 5721 5724 5728 5730 5732 5733 5733 5736 5735 5735 5734 5735 5738 5739 5740 5740 5740 5740 5741 5743 5743 5743 5744 5743 5742 5741 5740 5739 5737 5735 5733 5731 5728 5725 5722 5718 5717 5712 5706 5699 5692 5685 5678
5714 5715 5718 5722 5725 5728 5728 5731 5731 5729 5729 5729 5731 5735 5735 5735 5735 5736 5735 5736 5737 5738 5739 5739 5739 5738 5737 5735 5733 5732 5729 5728 5724 5721 5717 5714 5710 5705 5698 5692 5685 5680 5674 5668
5708 5710 5713 5717 5723 5724 5724 5725 5724 5724 5724 5726 5726 5728 5729 5728 5728 5729 5729 5730 5731 5733 5733 5733 5733 5732 5730 5728 5727 5725 5723 5721 5716 5712 5709 5704 5699 5693 5687 5682 5675 5669 5663 5656
5703 5706 5709 5712 5715 5716 5718 5719 5718 5718 5720 5719 5723 5721 5724 5723 5723 5722 5723 5725 5726 5726 5726 5726 5725 5724 5723 5721 5719 5717 5714 5711 5708 5704 5699 5694 5689 5682 5676 5669 5663 5657 5651 5644
5699 5701 5704 5706 5709 5710 5712 5713 5714 5715 5716 5716 5716 5716 5717 5717 5717 5716 5717 5718 5719 5719 5719 5718 5717 5716 5714 5712 5710 5707 5704 5699 5696 5692 5686 5681 5676 5669 5663 5657 5652 5645 5638 5632
5695 5697 5700 5701 5703 5703 5704 5709 5709 5709 5709 5709 5707 5711 5709 5710 5711 5711 5711 5711 5712 5711 5711 5710 5709 5707 5705 5703 5701 5697 5693 5689 5684 5679 5674 5669 5663 5657 5651 5646 5639 5632 5626 5618
5688 5691 5693 5695 5696 5694 5702 5702 5703 5701 5702 5701 5700 5701 5702 5701 5702 5703 5703 5704 5704 5703 5702 5701 5700 5698 5696 5694 5690 5686 5682 5677 5672 5667 5661 5656 5650 5644 5638 5633 5626 5620 5613 5605
5682 5685 5686 5687 5689 5691 5693 5696 5696 5693 5694 5694 5695 5695 5694 5694 5694 5695 5695 5696 5696 5695 5695 5694 5692 5690 5687 5683 5679 5675 5671 5666 5660 5655 5649 5644 5638 5632 5626 5620 5614 5607 5601 5594
5676 5679 5681 5682 5682 5684 5689 5689 5687 5685 5685 5689 5688 5688 5687 5687 5688 5688 5689 5690 5689 5688 5687 5685 5683 5680 5677 5673 5669 5664 5659 5654 5648 5642 5637 5631 5625 5618 5611 5606 5600 5594 5587 5578
5669 5672 5674 5676 5676 5678 5681 5682 5680 5677 5686 5679 5679 5679 5680 5681 5683 5683 5683 5683 5682 5681 5679 5676 5673 5670 5666 5662 5658 5652 5646 5640 5635 5629 5624 5617 5611 5605 5599 5593 5586 5578 5570 5561
5664 5667 5669 5671 5671 5673 5675 5673 5673 5674 5672 5672 5672 5674 5674 5676 5677 5678 5677 5677 5675 5673 5670 5668 5665 5661 5656 5651 5645 5640 5634 5628 5622 5616 5610 5603 5597 5591 5585 5578 5571 5562 5554 5546
5657 5661 5664 5666 5667 5667 5667 5667 5666 5665 5666 5667 5668 5669 5670 5671 5672 5671 5670 5668 5667 5664 5661 5657 5653 5648 5643 5638 5632 5627 5621 5615 5609 5602 5596 5589 5583 5577 5570 5562 5554 5545 5536 5528
5650 5654 5655 5659 5661 5662 5662 5662 5661 5661 5661 5662 5664 5665 5665 5665 5664 5663 5661 5660 5657 5653 5649 5645 5641 5636 5631 5625 5619 5613 5607 5600 5594 5587 5580 5574 5568 5561 5553 5545 5537 5528 5518 5509
5643 5646 5649 5651 5654 5656 5656 5656 5655 5656 5656 5656 5657 5658 5658 5657 5656 5654 5652 5649 5645 5641 5637 5633 5628 5622 5617 5611 5605 5598 5592 5585 5578 5571 5565 5559 5552 5544 5536 5527 5519 5510 5499 5488
5635 5640 5642 5645 5646 5645 5648 5649 5650 5651 5651 5650 5650 5649 5648 5647 5645 5643 5640 5636 5632 5627 5623 5618 5613 5608 5602 5596 5590 5583 5576 5569 5563 5556 5550 5543 5535 5526 5518 5510 5503 5490 5480 5469